Weather History for HEAR - October, 2013

Change the Weather History Date:

Wednesday, October 30, 2013

  Actual Average Record
Temperature  
Mean Temperature 74 °F -  
Max Temperature 84 °F 77 °F - ()
Min Temperature 64 °F 54 °F - ()
Cooling Degree Days 9    
Growing Degree Days 24 (Base 50)    
Moisture  
Dew Point 60 °F    
Average Humidity 71    
Maximum Humidity 100    
Minimum Humidity 33    
Precipitation  
Precipitation 0.00 in 0.01 in - ()
Sea Level Pressure  
Sea Level Pressure 29.87 in    
Wind  
Wind Speed 5 mph ()    
Max Wind Speed 8 mph    
Max Gust Speed -    
Visibility 3.8 miles    
Events      
T = Trace of Precipitation, MM = Missing Value Source: Averaged Metar Reports

Daily Weather History Graph

Daily Weather History Graph

Search for Another Location

Airport or City:

Trip Planner

Search our weather history database for the weather conditions in past years. The results will help you decide how hot, cold, wet, or windy it might be!

Date:

Astronomy

Oct. 30, 2013 Rise Set
Actual Time 5:58 AM EET 4:57 PM EET
Civil Twilight 5:33 AM EET 5:22 PM EET
Nautical Twilight 5:04 AM EET 5:51 PM EET
Astronomical Twilight 4:36 AM EET 6:19 PM EET
Moon 1:43 AM EET 2:17 PM EET
Length of Visible Light 11h 49m
Length of Day
10h 59m
Waning Crescent, 19% of the Moon is Illuminated
Oct 30
Waning Crescent
Nov 3
New
Nov 10
First Quarter
Nov 17
Full
Nov 25
Last Quarter

Hourly Weather History & Observations

Time (EET) Temp. Heat Index Dew Point Humidity Pressure Visibility Wind Dir Wind Speed Gust Speed Precip Events Conditions
12:00 AM 66.2 °F - 62.6 °F 88% 29.83 in - WSW 6.9 mph - N/A   Clear
1:00 AM 66.2 °F - 64.4 °F 94% 29.83 in - WSW 6.9 mph - N/A   Clear
2:00 AM 66 °F - 66 °F 99% 29.83 in 4 mi WSW 6.9 mph - -   Mist
2:00 AM 66.2 °F - 66.2 °F 100% 29.83 in 3.7 mi WSW 6.9 mph - N/A   Unknown
3:00 AM 66.2 °F - 66.2 °F 100% 29.83 in 3.7 mi SW 8.1 mph - N/A   Unknown
4:00 AM 66.2 °F - 66.2 °F 100% 29.83 in 3.7 mi WSW 6.9 mph - N/A   Unknown
9:00 AM 71.6 °F - 62.6 °F 73% 29.89 in - South 6.9 mph - N/A   Clear
10:00 AM 75.2 °F - 64.4 °F 69% 29.89 in - South 4.6 mph - N/A   Clear
11:00 AM 80.6 °F 81.5 °F 60.8 °F 51% 29.89 in - South 5.8 mph - N/A   Clear
12:00 PM 80.6 °F 80.5 °F 55.4 °F 42% 29.86 in - SE 8.1 mph - N/A   Clear
1:00 PM 82.4 °F 81.7 °F 55.4 °F 39% 29.86 in - SSE 8.1 mph - N/A   Clear
2:00 PM 84.2 °F - 51.8 °F 33% 29.86 in - SE 4.6 mph - N/A   Clear
3:00 PM 82.4 °F - 51.8 °F 35% 29.86 in - Calm Calm - N/A   Clear
4:00 PM 78.8 °F - 55.4 °F 44% 29.86 in - NNE 8.1 mph - N/A   Clear
5:00 PM 75.2 °F - 62.6 °F 65% 29.86 in - North 5.8 mph - N/A   Clear
6:00 PM 71.6 °F - 62.6 °F 73% 29.89 in - North 2.3 mph - N/A   Clear
7:00 PM 69.8 °F - 60.8 °F 73% 29.89 in - NE 4.6 mph - N/A   Clear
8:00 PM 68.0 °F - 59.0 °F 73% 29.92 in - WSW 1.2 mph - N/A   Clear
9:00 PM 66.2 °F - 59.0 °F 78% 29.92 in - South 1.2 mph - N/A   Clear
10:00 PM 64.4 °F - 57.2 °F 77% 29.89 in - Calm Calm - N/A   Clear
11:00 PM 64.4 °F - 59.0 °F 83% 29.89 in - Calm Calm - N/A   Clear